FW0274 Weather Reports


time (UTC)temp
C
wind
direction
speed
KPH
gust
KPH
rain 1hr
cm
rain 24hr
cm
rain mn
cm
humidity
%
barometer
mb
20260506204526 12 309 0.0 8.0 0.00 1.78 0.56 56 1012.6
20260506203023 12 328 0.0 6.4 0.00 1.78 0.56 58 1012.5
20260506201523 12 315 0.0 6.4 0.00 1.78 0.56 58 1012.4
20260506200022 12 355 0.0 8.0 0.00 1.78 0.56 55 1012.3
20260506194522 12 315 0.0 1.6 0.00 1.78 0.56 55 1012.4
20260506193021 13 338 1.6 12.9 0.00 1.78 0.56 56 1012.4
20260506191520 13 317 0.0 4.8 0.00 1.78 0.56 56 1012.1
20260506190020 13 18 3.2 12.9 0.00 1.78 0.56 57 1012.0
20260506184537 13 263 0.0 6.4 0.00 1.78 0.56 56 1012.2
20260506183029 13 284 0.0 8.0 0.00 1.78 0.56 55 1012.3
20260506181519 13 334 0.0 9.7 0.00 1.78 0.56 55 1012.3
20260506180016 13 26 0.0 8.0 0.00 1.78 0.56 59 1012.1
20260506174515 13 24 1.6 6.4 0.00 1.78 0.56 59 1012.6
20260506173013 13 321 1.6 8.0 0.00 1.78 0.56 58 1012.3
20260506171509 12 302 0.0 12.9 0.00 1.78 0.56 62 1012.4
20260506170008 12 327 0.0 6.4 0.00 1.78 0.56 63 1012.2
20260506164509 12 312 1.6 8.0 0.00 1.78 0.56 58 1012.3
20260506163005 11 311 0.0 11.3 0.00 1.78 0.56 65 1012.3
20260506161500 11 355 1.6 8.0 0.00 1.78 0.56 63 1012.2
20260506160108 11 350 1.6 6.4 0.00 1.78 0.56 67 1012.0
20260506154603 11 5 0.0 6.4 0.00 1.78 0.56 70 1011.9
20260506153111 11 296 0.0 0.0 0.00 1.78 0.56 70 1011.9
20260506151551 10 342 0.0 6.4 0.00 1.78 0.56 72 1011.5
20260506150057 10 278 0.0 4.8 0.00 1.78 0.56 73 1011.5
20260506144555 9 302 0.0 6.4 0.00 1.78 0.56 75 1011.5
20260506143047 9 340 0.0 6.4 0.00 1.78 0.56 76 1011.1
20260506141545 8 5 1.6 8.0 0.00 1.78 0.56 76 1010.9
20260506140044 8 9 1.6 8.0 0.00 1.78 0.56 75 1010.8
20260506134541 8 299 0.0 6.4 0.00 1.78 0.56 71 1010.5
20260506133039 8 277 1.6 6.4 0.00 1.78 0.56 64 1010.5
20260506131541 8 324 0.0 4.8 0.00 1.78 0.56 61 1010.6
20260506130037 8 334 0.0 0.0 0.00 1.78 0.56 63 1010.4
20260506124534 7 337 1.6 6.4 0.00 1.78 0.56 61 1010.0
20260506123033 7 336 0.0 0.0 0.00 1.78 0.56 53 1009.2
20260506121530 7 336 0.0 0.0 0.03 1.78 0.56 47 1009.4
20260506120029 7 13 0.0 4.8 0.03 1.78 0.56 44 1009.1
20260506114529 7 355 0.0 0.0 0.03 1.78 0.56 42 1009.0
20260506113036 7 360 0.0 0.0 0.03 1.78 0.56 42 1008.6
20260506111527 7 338 0.0 3.2 0.00 1.75 0.53 42 1008.0
20260506110023 7 13 0.0 3.2 0.00 1.75 0.53 43 1008.2
20260506104525 7 44 0.0 4.8 0.00 1.75 0.53 43 1008.2
20260506101516 7 21 0.0 0.0 0.00 1.75 0.53 43 1007.2
20260506100016 7 22 0.0 4.8 0.03 1.75 0.53 43 1006.9
20260506094516 7 56 0.0 6.4 0.05 1.75 0.53 44 1006.6
20260506093015 7 30 1.6 6.4 0.08 1.75 0.53 44 1007.3
20260506091515 7 54 3.2 8.0 0.10 1.75 0.53 44 1006.9
20260506090020 7 36 3.2 8.0 0.10 1.73 0.51 43 1007.1
20260506084509 8 49 1.6 6.4 0.08 1.70 0.48 42 1007.2
20260506083006 8 48 3.2 6.4 0.05 1.65 0.43 42 1007.0
20260506081503 8 341 3.2 6.4 0.10 1.65 0.43 42 1007.0
20260506073058 8 22 0.0 6.4 0.20 1.60 0.38 42 1006.3
20260506071603 8 355 0.0 6.4 0.18 1.55 0.33 42 1006.1
20260506061547 10 304 0.0 4.8 0.13 1.37 0.15 40 1005.9
20260506044539 10 36 0.0 3.2 0.05 1.24 0.03 42 1006.4
20260506043037 10 28 0.0 0.0 0.13 1.24 0.03 43 1006.5
20260506041535 10 51 0.0 4.8 0.23 1.24 0.03 44 1006.7
20260506040032 10 355 1.6 4.8 0.28 1.22 0.00 46 1006.6
20260506034532 10 308 0.0 0.0 0.30 1.19 1.19 48 1006.9
20260506033026 11 288 0.0 4.8 0.28 1.12 1.12 52 1007.2
20260506031522 13 311 0.0 16.1 0.23 1.02 1.02 52 1007.2
20260506030035 14 246 0.0 1.6 0.23 0.94 0.94 38 1007.1
20260506024544 14 215 0.0 0.0 0.28 0.89 0.89 40 1007.0
20260506023018 14 208 0.0 4.8 0.25 0.84 0.84 40 1007.1
20260506021517 15 211 0.0 6.4 0.20 0.76 0.76 39 1007.2
20260506020016 15 257 3.2 8.0 0.13 0.69 0.69 37 1007.2
20260506014514 15 194 0.0 0.0 0.08 0.61 0.61 36 1007.2
20260506013022 15 215 0.0 0.0 0.08 0.58 0.58 36 1007.0
20260506011513 15 181 0.0 3.2 0.08 0.56 0.56 37 1006.8
20260506010012 15 211 0.0 3.2 0.10 0.56 0.56 37 1006.7
20260506004512 15 195 0.0 8.0 0.08 0.53 0.53 37 1006.9
20260506003011 15 221 0.0 0.0 0.05 0.51 0.51 38 1006.8
20260506001510 15 211 0.0 0.0 0.03 0.48 0.48 39 1006.7
20260506000009 15 195 0.0 0.0 0.00 0.46 0.46 40 1006.8
20260505234509 15 225 0.0 0.0 0.03 0.46 0.46 42 1006.7
20260505233012 15 238 0.0 0.0 0.08 0.46 0.46 43 1006.8
20260505231507 15 227 0.0 0.0 0.18 0.46 0.46 44 1007.0
20260505230022 15 221 0.0 0.0 0.25 0.46 0.46 46 1007.1
20260505224606 15 248 0.0 0.0 0.41 0.43 0.43 47 1007.1
20260505223003 15 211 0.0 6.4 0.38 0.38 0.38 50 1007.4
20260505221502 15 250 0.0 9.7 0.28 0.28 0.28 56 1007.3
20260505220108 15 200 3.2 11.3 0.20 0.20 0.20 67 1007.2
20260505214558 17 281 4.8 22.5 0.00 0.00 0.00 72 1006.9
20260505213101 20 182 4.8 19.3 0.00 0.00 0.00 62 1006.1
20260505211556 20 217 4.8 17.7 0.00 0.00 0.00 62 1006.1
20260505210055 20 215 3.2 12.9 0.00 0.00 0.00 63 1006.0